GW1821 Weather Reports


Display with metric or nautical units.
time (UTC)temp
F
wind
direction
speed
MPH
gust
MPH
rain 1hr
in
rain 24hr
in
rain mn
in
humidity
%
barometer
mb
20260510215952 61 325 4.0 12.0 0.00 0.00 0.00 34 1018.1
20260510215450 61 327 3.0 10.0 0.00 0.00 0.00 34 1018.0
20260510215205 61 297 4.0 14.0 0.00 0.00 0.00 33 1018.1
20260510214445 60 332 5.0 14.0 0.00 0.00 0.00 35 1018.1
20260510213943 60 15 5.0 11.0 0.00 0.00 0.00 32 1018.0
20260510213708 61 32 4.0 11.0 0.00 0.00 0.00 34 1018.0
20260510212936 61 213 4.0 11.0 0.00 0.00 0.00 33 1018.0
20260510212433 61 298 5.0 11.0 0.00 0.00 0.00 33 1018.1
20260510211928 61 301 5.0 16.0 0.00 0.00 0.00 33 1018.0
20260510211426 60 325 4.0 16.0 0.00 0.00 0.00 33 1018.0
20260510210927 60 263 4.0 12.0 0.00 0.00 0.00 33 1018.0
20260510210424 60 333 5.0 13.0 0.00 0.00 0.00 30 1018.0
20260510205920 61 355 5.0 16.0 0.00 0.00 0.00 35 1018.0
20260510205650 61 342 5.0 16.0 0.00 0.00 0.00 33 1017.8
20260510204919 61 311 4.0 12.0 0.00 0.00 0.00 33 1018.5
20260510204417 61 318 4.0 12.0 0.00 0.00 0.00 34 1017.8
20260510203916 60 5 4.0 12.0 0.00 0.00 0.00 37 1017.8
20260510203414 60 336 5.0 16.0 0.00 0.00 0.00 36 1017.8
20260510202916 60 318 5.0 16.0 0.00 0.00 0.00 33 1017.9
20260510202416 60 339 4.0 12.0 0.00 0.00 0.00 35 1017.8
20260510201912 59 321 4.0 10.0 0.00 0.00 0.00 34 1017.8
20260510201435 59 296 6.0 17.0 0.00 0.00 0.00 33 1017.9
20260510200908 59 306 6.0 17.0 0.00 0.00 0.00 35 1018.0
20260510200405 59 330 5.0 13.0 0.00 0.00 0.00 35 1017.9
20260510195906 59 290 6.0 18.0 0.00 0.00 0.00 34 1017.9
20260510195401 60 321 6.0 18.0 0.00 0.00 0.00 34 1017.9
20260510194901 60 346 6.0 16.0 0.00 0.00 0.00 39 1018.0
20260510194403 60 325 6.0 16.0 0.00 0.00 0.00 39 1017.9
20260510193906 60 355 5.0 16.0 0.00 0.00 0.00 39 1017.9
20260510193351 59 329 6.0 15.0 0.00 0.00 0.00 38 1018.0
20260510193338 59 296 7.0 16.0 0.00 0.00 0.00 38 1017.9
20260510192345 59 309 5.0 16.0 0.00 0.00 0.00 37 1017.8
20260510192111 59 30 5.0 16.0 0.00 0.00 0.00 40 1017.8
20260510191345 59 273 6.0 16.0 0.00 0.00 0.00 38 1017.8
20260510191318 60 314 7.0 15.0 0.00 0.00 0.00 36 1017.7
20260510190338 60 319 6.0 15.0 0.00 0.00 0.00 39 1017.8
20260510185835 60 15 5.0 14.0 0.00 0.00 0.00 41 1017.8
20260510185333 59 315 5.0 14.0 0.00 0.00 0.00 42 1017.8
20260510184830 59 294 5.0 15.0 0.00 0.00 0.00 43 1017.7
20260510184328 58 329 5.0 15.0 0.00 0.00 0.00 40 1018.0
20260510183827 58 260 5.0 16.0 0.00 0.00 0.00 40 1017.9
20260510183325 58 326 6.0 16.0 0.00 0.00 0.00 39 1018.0
20260510183042 58 5 7.0 17.0 0.00 0.00 0.00 41 1018.0
20260510182318 58 285 7.0 17.0 0.00 0.00 0.00 39 1018.0
20260510181815 58 355 5.0 13.0 0.00 0.00 0.00 39 1018.0
20260510181317 57 300 5.0 13.0 0.00 0.00 0.00 39 1017.8
20260510181310 58 303 6.0 15.0 0.00 0.00 0.00 40 1017.9
20260510180308 58 293 6.0 15.0 0.00 0.00 0.00 43 1017.8
20260510175806 57 329 6.0 13.0 0.00 0.00 0.00 41 1017.9
20260510175306 58 280 5.0 13.0 0.00 0.00 0.00 40 1017.8
20260510174804 57 317 5.0 13.0 0.00 0.00 0.00 40 1017.8
20260510174303 57 313 6.0 16.0 0.00 0.00 0.00 40 1017.7
20260510173755 57 323 7.0 21.0 0.00 0.00 0.00 43 1017.7
20260510173252 57 136 6.0 21.0 0.00 0.00 0.00 42 1017.8
20260510173008 56 326 6.0 13.0 0.00 0.00 0.00 43 1017.8
20260510172736 56 274 7.0 13.0 0.00 0.00 0.00 42 1017.8
20260510171747 57 76 8.0 17.0 0.00 0.00 0.00 40 1017.8
20260510171246 57 299 6.0 17.0 0.00 0.00 0.00 43 1017.7
20260510170745 56 306 5.0 14.0 0.00 0.00 0.00 46 1017.7
20260510170242 56 306 6.0 13.0 0.00 0.00 0.00 42 1017.9
20260510170006 56 348 6.0 14.0 0.00 0.00 0.00 42 1017.8
20260510165241 56 296 5.0 14.0 0.00 0.00 0.00 44 1017.9
20260510164740 55 304 6.0 17.0 0.00 0.00 0.00 45 1017.8
20260510164243 55 290 7.0 17.0 0.00 0.00 0.00 46 1017.9
20260510163740 54 310 5.0 15.0 0.00 0.00 0.00 47 1017.9
20260510163231 53 263 3.0 8.0 0.00 0.00 0.00 47 1017.9
20260510162732 53 242 3.0 9.0 0.00 0.00 0.00 47 1017.9
20260510162232 53 302 4.0 10.0 0.00 0.00 0.00 46 1017.8
20260510161728 53 275 3.0 10.0 0.00 0.00 0.00 50 1017.9
20260510161226 53 302 4.0 10.0 0.00 0.00 0.00 54 1017.8
20260510160721 53 252 3.0 12.0 0.00 0.00 0.00 52 1017.8
20260510160708 53 307 3.0 12.0 0.00 0.00 0.00 53 1017.8
20260510155719 53 296 3.0 11.0 0.00 0.00 0.00 54 1017.9
20260510155218 52 309 3.0 10.0 0.00 0.00 0.00 55 1017.8
20260510154720 51 275 4.0 12.0 0.00 0.00 0.00 56 1017.7
20260510154219 51 288 5.0 12.0 0.00 0.00 0.00 56 1017.8
20260510153718 51 346 5.0 11.0 0.00 0.00 0.00 57 1017.7
20260510153434 50 312 4.0 11.0 0.00 0.00 0.00 62 1017.7
20260510152713 50 355 3.0 11.0 0.00 0.00 0.00 63 1017.8
20260510152215 50 328 4.0 9.0 0.00 0.00 0.00 62 1017.8
20260510151941 50 24 4.0 11.0 0.00 0.00 0.00 61 1017.7
20260510151154 50 42 4.0 11.0 0.00 0.00 0.00 63 1017.7
20260510150654 50 326 4.0 9.0 0.00 0.00 0.00 62 1017.8
20260510150148 50 10 3.0 12.0 0.00 0.00 0.00 67 1017.7
20260510145645 49 13 4.0 12.0 0.00 0.00 0.00 65 1017.7
20260510145408 49 298 4.0 12.0 0.00 0.00 0.00 67 1017.7
20260510144636 49 327 3.0 10.0 0.00 0.00 0.00 69 1017.7
20260510144136 48 297 3.0 9.0 0.00 0.00 0.00 71 1017.7
20260510143635 47 17 4.0 11.0 0.00 0.00 0.00 71 1017.7
20260510143134 47 317 4.0 11.0 0.00 0.00 0.00 71 1017.6
20260510142845 47 5 4.0 12.0 0.00 0.00 0.00 73 1017.6
20260510142109 47 332 4.0 12.0 0.00 0.00 0.00 74 1017.5
20260510141607 46 318 5.0 11.0 0.00 0.00 0.00 75 1017.6
20260510141108 47 327 5.0 11.0 0.00 0.00 0.00 73 1017.6
20260510140607 47 313 5.0 12.0 0.00 0.00 0.00 74 1017.6
20260510140107 46 315 4.0 12.0 0.00 0.00 0.00 76 1017.5
20260510135603 46 292 4.0 10.0 0.00 0.00 0.00 78 1017.4
20260510135104 45 320 5.0 10.0 0.00 0.00 0.00 77 1017.4
20260510134831 45 322 4.0 11.0 0.00 0.00 0.00 79 1017.3
20260510134104 44 336 4.0 11.0 0.00 0.00 0.00 81 1017.3
20260510133603 44 348 4.0 9.0 0.00 0.00 0.00 82 1017.3
20260510133052 44 0 3.0 9.0 0.00 0.00 0.00 83 1017.4
20260510132553 43 317 1.0 4.0 0.00 0.00 0.00 85 1017.4
20260510132048 43 327 1.0 6.0 0.00 0.00 0.00 85 1017.3
20260510131759 42 329 1.0 6.0 0.00 0.00 0.00 85 1017.3
20260510131034 42 309 0.0 4.0 0.00 0.00 0.00 86 1017.3
20260510130759 42 299 1.0 3.0 0.00 0.00 0.00 87 1017.2
20260510130257 41 299 1.0 3.0 0.00 0.00 0.00 89 1017.2
20260510125528 41 318 1.0 3.0 0.00 0.00 0.00 90 1017.1
20260510125009 40 319 1.0 2.0 0.00 0.00 0.00 90 1017.0
20260510124735 40 320 1.0 2.0 0.00 0.00 0.00 91 1017.0
20260510124009 40 321 0.0 2.0 0.00 0.00 0.00 91 1016.9
20260510123456 40 321 0.0 2.0 0.00 0.00 0.00 91 1016.8
20260510122954 39 321 0.0 2.0 0.00 0.00 0.00 91 1016.7
20260510122447 39 321 0.0 1.0 0.00 0.00 0.00 91 1016.7
20260510121943 39 321 1.0 3.0 0.00 0.00 0.00 91 1016.6
20260510121413 39 321 2.0 3.0 0.00 0.00 0.00 91 1016.6
20260510120910 39 321 2.0 3.0 0.00 0.00 0.00 91 1016.6
20260510120411 38 323 1.0 3.0 0.00 0.00 0.00 91 1016.5
20260510115907 38 324 0.0 1.0 0.00 0.00 0.00 92 1016.5
20260510115406 38 324 0.0 2.0 0.00 0.00 0.00 92 1016.4
20260510114848 38 324 0.0 2.0 0.00 0.00 0.00 92 1016.3
20260510114351 38 324 0.0 1.0 0.00 0.00 0.00 91 1016.3
20260510114110 38 324 0.0 1.0 0.00 0.00 0.00 91 1016.3
20260510113330 38 324 0.0 1.0 0.00 0.00 0.00 91 1016.2
20260510112827 38 324 0.0 2.0 0.00 0.00 0.00 91 1016.2
20260510112545 38 324 0.0 2.0 0.00 0.00 0.00 91 1016.2
20260510111820 38 324 0.0 1.0 0.00 0.00 0.00 91 1016.0
20260510111301 37 324 0.0 1.0 0.00 0.00 0.00 91 1015.9
20260510110750 37 324 0.0 0.0 0.00 0.00 0.00 91 1015.8
20260510110244 37 324 0.0 0.0 0.00 0.00 0.00 91 1015.8
20260510105734 37 324 0.0 0.0 0.00 0.00 0.00 91 1015.7
20260510105231 37 324 0.0 1.0 0.00 0.00 0.00 91 1015.6
20260510104944 37 324 0.0 1.0 0.00 0.00 0.00 91 1015.6
20260510104451 37 324 0.0 1.0 0.00 0.00 0.00 91 1015.5
20260510103721 37 324 0.0 1.0 0.00 0.00 0.00 90 1015.4
20260510103222 37 324 0.0 1.0 0.00 0.00 0.00 90 1015.5
20260510102710 37 324 0.0 1.0 0.00 0.00 0.00 90 1015.4
20260510102154 37 324 0.0 0.0 0.00 0.01 0.00 90 1015.1
20260510101655 38 324 0.0 0.0 0.00 0.01 0.00 89 1015.1
20260510101151 38 324 0.0 0.0 0.00 0.02 0.00 89 1015.0
20260510100648 38 324 0.0 1.0 0.00 0.02 0.00 88 1015.0
20260510100145 39 324 0.0 1.0 0.00 0.02 0.00 88 1015.0
20260510095643 39 324 0.0 1.0 0.00 0.02 0.00 88 1014.9
20260510095141 40 324 0.0 0.0 0.00 0.02 0.00 88 1014.7
20260510094633 40 324 0.0 0.0 0.00 0.02 0.00 87 1014.7
20260510094131 40 324 0.0 0.0 0.00 0.02 0.00 85 1014.7
20260510093623 39 324 0.0 0.0 0.00 0.03 0.00 81 1014.6
20260510093109 39 324 0.0 0.0 0.00 0.03 0.00 77 1014.5
20260510092606 40 324 0.0 0.0 0.00 0.03 0.00 77 1014.4
20260510092058 40 324 0.0 0.0 0.00 0.04 0.00 76 1014.4
20260510091559 40 324 0.0 0.0 0.00 0.04 0.00 77 1014.3
20260510091051 40 324 0.0 0.0 0.00 0.04 0.00 77 1014.3
20260510090546 40 324 0.0 3.0 0.00 0.04 0.00 76 1014.3
20260510090033 40 324 0.0 3.0 0.00 0.04 0.00 76 1014.3
20260510085526 40 323 0.0 1.0 0.00 0.04 0.00 78 1014.2
20260510085229 39 323 0.0 1.0 0.00 0.04 0.00 79 1014.0
20260510084739 39 323 0.0 1.0 0.00 0.04 0.00 80 1013.9
20260510084007 39 323 0.0 1.0 0.00 0.04 0.00 80 1013.8
20260510083444 39 323 0.0 0.0 0.00 0.04 0.00 80 1013.8
20260510082940 39 323 0.0 0.0 0.00 0.04 0.00 81 1013.8
20260510082414 38 323 0.0 0.0 0.00 0.04 0.00 81 1013.7
20260510081900 38 323 0.0 0.0 0.00 0.04 0.00 80 1013.6
20260510081401 38 323 0.0 1.0 0.00 0.04 0.00 79 1013.5
20260510080844 38 323 0.0 1.0 0.00 0.04 0.00 79 1012.4
20260510080321 38 323 0.0 0.0 0.00 0.04 0.00 78 1013.4
20260510075822 38 323 0.0 0.0 0.00 0.04 0.00 78 1013.3
20260510075310 39 323 0.0 0.0 0.00 0.04 0.00 77 1013.4
20260510074809 39 323 0.0 0.0 0.00 0.04 0.00 77 1013.3
20260510074309 39 323 0.0 0.0 0.00 0.04 0.00 77 1013.3
20260510073805 39 323 0.0 0.0 0.00 0.04 0.00 76 1013.3
20260510073303 39 323 0.0 0.0 0.00 0.04 0.00 76 1013.3
20260510072753 39 323 0.0 1.0 0.00 0.04 0.00 76 1013.3
20260510072238 40 323 0.0 1.0 0.00 0.04 0.00 75 1013.4
20260510071737 40 323 0.0 0.0 0.00 0.04 0.00 74 1013.3
20260510071222 40 323 0.0 0.0 0.00 0.04 0.00 74 1013.3
20260510070708 40 323 0.0 0.0 0.00 0.04 0.00 74 1013.4
20260510070158 40 323 0.0 0.0 0.00 0.04 0.00 74 1013.3
20260510065647 40 323 0.0 0.0 0.00 0.04 0.00 74 1013.3
20260510065125 40 323 0.0 0.0 0.00 0.04 0.00 74 1013.3
20260510064547 40 323 0.0 0.0 0.00 0.04 0.00 73 1013.3
20260510064034 40 323 0.0 0.0 0.00 0.04 0.00 73 1013.2
20260510063525 41 323 0.0 0.0 0.00 0.04 0.00 72 1013.2
20260510063013 41 323 0.0 0.0 0.00 0.04 0.00 72 1013.2
20260510062511 41 323 0.0 0.0 0.00 0.04 0.00 72 1013.2
20260510061957 41 323 0.0 0.0 0.00 0.04 0.00 72 1013.2
20260510061447 42 323 0.0 0.0 0.00 0.04 0.00 71 1013.2
20260510060934 42 323 0.0 0.0 0.00 0.04 0.00 70 1013.2
20260510060428 42 323 0.0 0.0 0.00 0.04 0.00 69 1013.2
20260510055928 42 323 0.0 0.0 0.00 0.04 0.00 67 1013.1
20260510055420 42 323 0.0 0.0 0.00 0.04 0.00 67 1013.1
20260510054908 42 323 0.0 0.0 0.00 0.04 0.00 66 1013.1
20260510054354 42 323 0.0 0.0 0.00 0.04 0.00 66 1013.1
20260510053846 42 323 0.0 0.0 0.00 0.04 0.00 67 1013.0
20260510053338 42 323 0.0 1.0 0.00 0.04 0.00 65 1013.0
20260510052820 42 323 1.0 2.0 0.00 0.04 0.00 64 1013.0
20260510052317 43 323 1.0 2.0 0.00 0.04 0.00 64 1013.0
20260510051812 43 325 0.0 2.0 0.00 0.04 0.00 64 1013.0
20260510051307 43 325 0.0 0.0 0.00 0.04 0.00 64 1012.9
20260510050802 43 325 0.0 0.0 0.00 0.04 0.00 63 1012.9
20260510050512 44 325 0.0 0.0 0.00 0.04 0.00 63 1012.8
20260510045958 44 325 0.0 0.0 0.00 0.04 0.04 62 1012.8
20260510045233 44 325 0.0 0.0 0.00 0.04 0.04 61 1012.8
20260510044714 45 325 0.0 0.0 0.00 0.04 0.04 60 1012.7
20260510044201 45 325 0.0 0.0 0.00 0.04 0.04 59 1012.7
20260510043658 45 325 0.0 0.0 0.00 0.04 0.04 58 1012.7
20260510043404 46 325 0.0 0.0 0.00 0.04 0.04 58 1012.7
20260510042912 46 325 0.0 0.0 0.00 0.04 0.04 58 1012.6
20260510042357 46 325 0.0 0.0 0.00 0.04 0.04 57 1012.6
20260510041636 47 325 0.0 0.0 0.00 0.04 0.04 56 1012.6
20260510041129 47 325 0.0 0.0 0.00 0.04 0.04 55 1012.6
20260510040624 47 325 0.0 3.0 0.00 0.04 0.04 54 1012.6
20260510040108 47 325 0.0 3.0 0.00 0.04 0.04 53 1012.6
20260510040036 48 325 1.0 3.0 0.00 0.04 0.04 52 1012.6
20260510035045 48 325 1.0 3.0 0.00 0.04 0.04 51 1012.6
20260510034819 48 325 1.0 5.0 0.00 0.04 0.04 51 1012.6
20260510034039 49 327 2.0 5.0 0.00 0.04 0.04 50 1012.5
20260510033534 49 331 2.0 5.0 0.00 0.04 0.04 50 1012.6
20260510033300 49 331 1.0 5.0 0.00 0.04 0.04 49 1012.4
20260510032529 50 331 2.0 5.0 0.00 0.04 0.04 49 1012.4
20260510032028 50 331 2.0 5.0 0.00 0.04 0.04 48 1012.3
20260510031526 50 336 2.0 4.0 0.00 0.04 0.04 48 1012.3
20260510031023 50 339 2.0 4.0 0.00 0.04 0.04 47 1012.2
20260510030514 51 336 2.0 5.0 0.00 0.04 0.04 46 1012.1
20260510030012 51 341 2.0 5.0 0.00 0.04 0.04 46 1012.0
20260510025510 51 336 2.0 6.0 0.00 0.04 0.04 46 1011.9
20260510025011 51 335 2.0 6.0 0.00 0.04 0.04 47 1011.7
20260510024505 52 329 2.0 4.0 0.00 0.04 0.04 44 1011.7
20260510024006 52 324 2.0 4.0 0.00 0.04 0.04 43 1011.5
20260510023504 52 325 2.0 5.0 0.00 0.04 0.04 43 1011.3
20260510023002 53 328 2.0 5.0 0.00 0.04 0.04 43 1011.1
20260510022458 53 327 1.0 5.0 0.00 0.04 0.04 43 1011.0
20260510021952 53 317 1.0 4.0 0.00 0.04 0.04 42 1010.9
20260510021442 54 321 2.0 4.0 0.00 0.04 0.04 42 1010.8
20260510020942 54 321 2.0 4.0 0.00 0.04 0.04 41 1010.7
20260510020443 54 323 2.0 5.0 0.00 0.04 0.04 40 1010.6
20260510020410 55 334 3.0 8.0 0.00 0.04 0.04 40 1010.5
20260510015424 55 322 3.0 11.0 0.00 0.04 0.04 39 1010.4
20260510014924 55 323 3.0 11.0 0.00 0.04 0.04 39 1010.3
20260510014424 56 338 3.0 11.0 0.00 0.04 0.04 38 1010.1
20260510014143 56 298 4.0 11.0 0.00 0.04 0.04 38 1010.1
20260510013419 56 320 4.0 9.0 0.00 0.04 0.04 37 1010.0
20260510013139 56 303 4.0 10.0 0.00 0.04 0.04 38 1009.9
20260510012414 56 313 4.0 10.0 0.00 0.04 0.04 38 1009.8
20260510011915 56 278 4.0 9.0 0.00 0.04 0.04 37 1009.7
20260510011413 57 336 5.0 12.0 0.00 0.04 0.04 37 1009.6
20260510010916 57 310 5.0 13.0 0.00 0.04 0.04 37 1009.5
20260510010410 57 342 5.0 13.0 0.00 0.04 0.04 36 1009.5
20260510005910 58 289 5.0 13.0 0.00 0.04 0.04 36 1009.4
20260510005636 58 285 5.0 13.0 0.00 0.04 0.04 36 1009.3
20260510004911 58 257 5.0 11.0 0.00 0.04 0.04 35 1009.2
20260510004402 58 286 5.0 11.0 0.00 0.04 0.04 35 1009.2
20260510003902 58 343 5.0 14.0 0.00 0.04 0.04 35 1009.2
20260510003402 59 305 5.0 14.0 0.00 0.04 0.04 35 1009.2
20260510002902 59 288 4.0 14.0 0.00 0.04 0.04 35 1009.1
20260510002400 59 329 4.0 12.0 0.00 0.04 0.04 35 1009.0
20260510002117 60 292 5.0 12.0 0.00 0.04 0.04 34 1009.0
20260510001401 60 309 4.0 12.0 0.00 0.04 0.04 34 1008.9
20260510000858 60 322 4.0 13.0 0.00 0.04 0.04 34 1008.8
20260510000616 60 318 4.0 13.0 0.00 0.04 0.04 34 1008.7
20260509235854 61 340 5.0 13.0 0.00 0.04 0.04 34 1008.6
20260509235353 61 323 5.0 13.0 0.00 0.04 0.04 34 1008.6
20260509234849 61 340 5.0 13.0 0.00 0.04 0.04 34 1008.6
20260509234349 61 325 6.0 18.0 0.00 0.04 0.04 34 1008.6
20260509233850 61 312 7.0 18.0 0.00 0.04 0.04 34 1008.5
20260509233350 61 309 7.0 16.0 0.00 0.04 0.04 34 1008.5
20260509232848 61 257 5.0 15.0 0.00 0.04 0.04 35 1008.3
20260509232346 61 300 4.0 17.0 0.00 0.04 0.04 34 1008.3
20260509231842 60 337 5.0 17.0 0.00 0.04 0.04 34 1008.2
20260509231342 60 326 6.0 17.0 0.00 0.04 0.04 34 1008.3
20260509230834 61 242 5.0 17.0 0.00 0.04 0.04 33 1008.3
20260509230334 62 293 5.0 15.0 0.00 0.04 0.04 35 1008.2
20260509230056 62 313 6.0 15.0 0.00 0.04 0.04 34 1008.2
20260509225335 61 30 6.0 15.0 0.00 0.04 0.04 36 1008.2
20260509224829 60 313 5.0 15.0 0.00 0.04 0.04 35 1008.1
20260509224329 61 295 6.0 16.0 0.00 0.04 0.04 33 1008.0
20260509223834 61 288 7.0 16.0 0.00 0.04 0.04 34 1008.0
20260509223329 61 297 6.0 12.0 0.00 0.04 0.04 34 1008.0
20260509222828 61 274 5.0 13.0 0.00 0.04 0.04 35 1008.0
20260509222329 62 290 5.0 13.0 0.00 0.04 0.04 34 1008.0
20260509221826 62 336 4.0 13.0 0.00 0.04 0.04 35 1008.0
20260509221540 62 333 5.0 13.0 0.00 0.04 0.04 36 1007.9
20260509220824 62 19 5.0 14.0 0.00 0.04 0.04 37 1007.9
20260509220321 61 299 5.0 14.0 0.00 0.04 0.04 38 1007.9